Total_Precipitation_Accumulation
0.04 0.05 0.03 0.03 0.21 0.35 0.95 1.34 3.49 1.52 1.77 1.91 2.57 2.37 2.46 1.53 1.31 2.22 2.18 1.44 1.96 1.81 1.12 0.61 0.41 0.43 1.69 1.00 0.82 0.31 0.23 0.94 0.73 0.70 1.05 0.85 1.06 0.58 0.48 0.54 0.56 0.45 0.64 0.79 1.21 1.20 1.11 1.13 1.12 1.33 1.53 1.48 1.71 1.38 1.07 0.96 1.00 0.82 0.92 0.67 0.68 0.70 0.33 0.40 0.38 0.30 0.18 0.20 0.17 0.20 0.12 0.18 0.28 0.12 0.17 0.20 0.25 0.25 0.37 0.36 0.39 0.52 0.50 0.76 0.69 0.68 1.07 0.85 0.62 0.49 0.39 0.51 0.45 0.52 0.49 0.81 0.71
0.02 0.01 0.05 0.07 0.36 0.95 2.08 0.69 1.90 2.04 1.54 2.13 1.41 2.32 2.01 1.84 2.02 1.74 1.35 2.12 1.56 1.41 0.79 0.53 0.36 0.21 0.33 0.48 0.22 0.15 0.15 0.41 0.17 0.20 0.45 0.52 0.66 0.70 0.57 0.46 0.39 0.41 0.36 0.53 0.73 1.07 0.82 1.18 0.95 1.08 1.13 1.54 1.46 0.97 0.67 0.68 0.68 0.45 0.58 0.45 0.71 0.54 0.40 0.21 0.23 0.27 0.19 0.14 0.18 0.19 0.17 0.21 0.18 0.16 0.16 0.20 0.15 0.31 0.32 0.27 0.36 0.49 0.60 0.74 0.65 0.69 0.92 0.60 0.77 0.57 0.55 0.53 0.56 0.64 0.84 0.84 0.81
0.00 0.01 0.08 0.26 0.69 1.49 2.09 0.92 2.70 2.59 2.19 1.63 1.73 1.49 1.55 2.17 2.16 1.49 1.61 1.29 0.94 0.90 0.41 0.41 0.37 0.63 0.46 0.39 0.53 0.37 0.53 0.30 0.09 0.16 0.53 0.70 0.62 1.19 0.58 0.48 0.28 0.37 0.35 0.43 0.50 0.64 0.72 1.05 0.57 1.12 1.27 1.28 0.72 0.64 0.61 0.40 0.29 0.37 0.37 0.55 0.42 0.62 0.32 0.25 0.18 0.21 0.18 0.13 0.14 0.24 0.25 0.35 0.22 0.23 0.27 0.27 0.23 0.26 0.56 0.51 0.54 0.63 0.79 0.95 0.91 0.89 0.81 0.50 0.59 0.79 0.98 0.89 0.89 0.98 1.06 1.04 0.88
0.01 0.02 0.11 0.49 2.20 1.11 2.15 1.96 1.38 2.74 1.97 1.65 1.78 1.79 1.81 1.57 1.57 1.62 0.90 1.19 1.11 0.73 0.46 0.37 1.26 0.28 0.67 0.32 0.25 0.17 0.22 0.44 0.20 0.08 0.75 0.75 0.38 0.32 0.30 0.31 0.29 0.28 0.32 0.27 0.40 0.63 0.79 0.47 0.49 1.02 0.91 0.89 0.65 0.50 0.41 0.36 0.37 0.39 0.40 0.54 0.49 0.44 0.23 0.20 0.22 0.28 0.19 0.15 0.28 0.35 0.42 0.49 0.32 0.39 0.57 0.33 0.41 0.29 0.46 0.61 0.94 0.74 0.83 1.15 0.88 1.02 1.10 0.91 0.86 0.83 0.84 0.65 0.70 0.96 0.84 0.98 0.89
0.03 0.15 0.51 1.37 3.75 2.82 2.25 2.39 1.85 2.24 2.16 1.73 2.29 1.41 1.46 1.28 1.09 1.25 1.53 1.34 0.89 0.91 0.33 0.37 0.30 0.58 0.93 0.59 0.23 0.80 0.48 0.30 0.37 0.19 0.28 0.37 0.18 0.30 0.37 0.25 0.33 0.26 0.31 0.50 0.43 0.67 0.72 0.35 0.45 0.94 0.92 0.68 0.50 0.53 0.54 0.34 0.30 0.34 0.29 0.35 0.28 0.28 0.29 0.16 0.22 0.27 0.17 0.27 0.34 0.57 0.50 0.64 0.63 0.80 0.40 0.51 0.50 0.36 0.42 0.63 0.75 1.13 1.00 1.36 1.19 0.87 0.89 1.34 0.98 0.95 0.87 0.80 0.63 0.78 0.84 0.75 0.83
0.14 0.29 0.50 1.53 3.46 1.95 1.93 2.01 2.59 1.61 2.16 1.82 2.52 1.38 1.60 1.78 0.86 0.41 0.23 1.36 0.91 1.07 0.50 0.45 0.38 0.33 0.35 0.25 0.21 0.33 0.20 0.43 0.27 0.23 0.15 0.36 0.24 0.17 0.19 0.15 0.19 0.32 0.42 0.45 0.65 0.51 0.64 0.28 0.37 0.41 0.63 0.49 0.42 0.44 0.32 0.25 0.27 0.32 0.27 0.37 0.42 0.44 0.26 0.23 0.34 0.35 0.26 0.28 0.55 0.50 0.55 0.57 1.05 0.52 0.44 0.50 0.52 0.47 0.60 0.87 0.96 0.77 0.96 0.94 1.15 0.87 1.00 0.92 0.96 0.87 1.04 0.90 0.58 0.49 0.49 0.56 0.79
0.35 0.68 0.75 1.57 1.55 2.31 2.48 2.10 1.29 1.49 1.54 1.95 1.20 1.56 1.80 1.64 1.04 0.49 0.23 0.59 1.25 0.77 0.51 0.32 0.11 0.12 0.33 0.25 0.11 0.12 0.10 0.07 0.18 0.22 0.10 0.18 0.13 0.14 0.18 0.18 0.17 0.27 0.33 0.28 0.55 0.46 0.50 0.31 0.45 0.70 0.52 0.48 0.38 0.44 0.37 0.22 0.22 0.30 0.35 0.37 0.45 0.42 0.34 0.39 0.31 0.37 0.48 0.40 0.39 0.53 0.61 0.69 0.70 0.72 0.53 0.42 0.42 0.60 0.47 0.44 0.57 0.91 0.75 1.05 1.21 1.20 0.98 1.08 0.94 0.86 0.83 0.84 0.45 0.37 0.50 0.57 0.58
0.12 1.86 2.31 2.71 2.70 2.17 2.31 1.22 1.21 1.47 1.44 1.53 1.36 1.35 1.76 0.77 1.41 1.11 0.34 0.47 0.34 0.46 0.26 0.20 0.31 0.63 0.88 0.09 0.77 0.43 0.14 0.12 0.17 0.09 0.10 0.09 0.14 0.17 0.15 0.14 0.23 0.23 0.23 0.37 0.32 0.45 0.43 0.34 0.33 0.34 0.51 0.38 0.46 0.29 0.31 0.25 0.23 0.35 0.30 0.57 0.46 0.42 0.33 0.45 0.27 0.39 0.46 0.47 0.55 0.55 0.47 0.68 0.71 0.51 0.65 0.54 0.45 0.56 0.49 0.48 0.71 0.75 1.08 1.38 1.19 1.15 1.01 1.01 1.22 0.83 0.77 0.56 0.47 0.31 0.37 0.66 0.73
0.37 1.11 1.48 3.00 3.15 1.78 1.39 2.07 1.07 1.37 1.52 1.66 1.38 1.40 1.70 1.71 1.88 1.31 1.02 1.00 0.10 0.73 0.44 0.21 0.20 0.70 0.54 0.47 0.46 0.35 0.24 0.09 0.10 0.06 0.07 0.11 0.12 0.11 0.18 0.12 0.18 0.24 0.26 0.29 0.32 0.27 0.50 0.37 0.42 0.31 0.34 0.37 0.20 0.27 0.21 0.23 0.35 0.43 0.48 0.55 0.57 0.36 0.42 0.50 0.33 0.39 0.39 0.50 0.33 0.43 0.50 0.63 0.65 0.49 0.58 0.57 0.52 0.52 0.39 0.39 0.83 0.69 0.92 0.77 0.91 1.10 0.96 0.87 0.64 0.89 0.68 0.59 0.44 0.37 0.37 0.50 0.62
1.05 1.24 3.79 2.62 1.87 1.98 1.27 0.82 1.83 1.85 1.59 1.26 1.74 1.77 1.17 0.81 1.23 2.35 0.64 0.64 0.84 0.19 0.33 0.23 0.14 0.59 0.40 0.27 0.31 0.25 0.35 0.18 0.08 0.19 0.12 0.13 0.13 0.13 0.17 0.17 0.12 0.15 0.19 0.25 0.23 0.34 0.34 0.47 0.27 0.29 0.30 0.21 0.22 0.28 0.23 0.26 0.35 0.39 0.41 0.46 0.38 0.36 0.40 0.49 0.57 0.49 0.40 0.43 0.32 0.44 0.49 0.38 0.65 0.81 0.58 0.70 0.76 0.58 0.48 0.54 0.62 0.78 0.80 0.73 0.70 0.76 0.85 0.77 0.87 0.61 0.82 0.65 0.38 0.54 0.36 0.45 0.53
1.83 1.51 1.74 2.40 2.61 1.82 1.95 0.92 1.51 1.84 1.31 1.49 1.09 1.58 1.65 1.16 1.23 1.11 1.28 0.66 0.31 0.33 0.13 0.11 0.22 0.32 0.28 0.45 0.44 0.28 0.17 0.10 0.06 0.17 0.15 0.13 0.13 0.11 0.14 0.21 0.15 0.10 0.11 0.23 0.21 0.22 0.36 0.45 0.39 0.27 0.20 0.13 0.17 0.21 0.26 0.29 0.42 0.38 0.48 0.60 0.34 0.34 0.45 0.42 0.46 0.39 0.44 0.35 0.41 0.39 0.52 0.43 0.49 0.40 0.46 0.64 0.67 0.65 0.74 0.59 0.68 0.85 0.73 0.59 0.84 0.89 0.87 0.70 0.71 0.59 0.68 0.63 0.41 0.33 0.45 0.54 0.67
1.51 2.07 2.60 1.81 2.00 2.35 1.16 1.30 1.06 1.63 1.47 1.33 1.32 1.68 1.17 1.71 1.30 0.79 0.69 0.86 0.32 0.14 0.13 0.09 0.32 0.23 0.20 0.20 0.62 0.89 0.23 0.13 0.12 0.07 0.13 0.14 0.12 0.10 0.12 0.13 0.11 0.12 0.11 0.09 0.13 0.26 0.35 0.38 0.45 0.62 0.17 0.14 0.15 0.26 0.22 0.35 0.28 0.29 0.37 0.35 0.27 0.38 0.39 0.43 0.53 0.39 0.51 0.33 0.40 0.36 0.47 0.38 0.62 0.65 0.59 0.50 0.67 0.57 0.49 0.63 0.59 0.66 0.77 0.89 0.96 0.99 1.02 1.29 0.86 0.79 0.75 0.69 0.51 0.38 0.61 0.66 0.71
1.12 2.02 2.94 2.68 1.88 1.52 1.14 1.19 1.45 0.92 1.70 1.95 1.30 1.75 1.02 1.27 1.87 1.12 0.96 0.72 0.36 0.37 0.25 0.38 0.21 0.16 0.16 0.26 0.54 0.31 0.29 0.15 0.08 0.07 0.11 0.09 0.12 0.12 0.12 0.14 0.18 0.17 0.09 0.07 0.09 0.18 0.23 0.35 0.51 0.45 0.34 0.42 0.25 0.38 0.38 0.23 0.27 0.25 0.29 0.33 0.32 0.29 0.29 0.31 0.33 0.42 0.57 0.44 0.29 0.42 0.49 0.31 0.59 0.57 0.53 0.65 0.59 0.56 0.50 0.43 0.50 0.56 0.83 1.08 1.17 1.20 1.27 1.18 0.96 0.94 0.84 0.60 0.39 0.39 0.82 0.89 0.98
0.50 1.02 2.09 2.10 1.54 1.59 2.08 1.21 1.05 1.56 1.75 1.03 1.55 1.70 1.76 1.11 1.06 1.67 1.20 0.88 0.42 0.80 0.10 0.16 0.13 0.06 0.35 0.10 1.08 0.42 0.23 0.14 0.04 0.07 0.07 0.08 0.09 0.11 0.16 0.15 0.17 0.09 0.09 0.11 0.09 0.13 0.20 0.23 0.34 0.41 0.39 0.57 0.90 0.59 0.31 0.37 0.30 0.34 0.28 0.36 0.32 0.24 0.35 0.34 0.46 0.44 0.38 0.46 0.66 0.33 0.51 0.69 0.71 0.53 0.70 0.88 0.95 0.88 0.61 0.48 0.66 0.76 0.97 1.09 1.00 1.12 0.96 1.47 1.49 1.38 0.80 0.57 0.55 0.46 0.59 0.52 0.93
0.60 1.17 2.04 1.57 1.72 1.30 0.79 2.66 1.82 0.83 1.31 1.38 0.91 1.53 0.96 0.77 1.11 0.81 1.50 0.79 0.48 0.44 0.04 0.05 0.14 0.11 0.29 0.06 0.39 0.13 0.13 0.06 0.08 0.09 0.08 0.08 0.09 0.12 0.14 0.13 0.12 0.10 0.09 0.11 0.19 0.21 0.16 0.22 0.30 0.29 0.27 0.47 0.55 0.60 0.90 0.40 0.39 0.38 0.45 0.32 0.34 0.37 0.45 0.35 0.53 0.62 0.61 0.67 0.49 0.74 0.93 0.86 0.84 0.74 0.71 0.91 1.09 1.01 0.67 0.55 0.60 0.81 0.85 0.76 0.80 0.82 0.91 1.06 1.22 0.90 1.23 0.68 0.55 0.61 0.79 0.75 0.54
1.01 1.20 1.42 1.98 2.01 1.67 1.00 0.88 0.67 1.16 1.24 0.78 0.54 0.79 1.08 0.73 1.14 1.28 1.42 1.39 0.23 0.31 0.09 0.17 0.09 0.32 0.13 0.07 0.05 0.01 0.04 0.05 0.05 0.04 0.08 0.12 0.13 0.14 0.21 0.17 0.14 0.20 0.17 0.17 0.27 0.21 0.15 0.23 0.28 0.40 0.40 0.27 0.25 0.47 0.50 0.76 0.59 0.53 0.42 0.34 0.42 0.33 0.56 0.53 0.63 0.96 0.93 0.65 0.81 0.79 0.68 0.83 0.73 0.54 0.74 0.74 1.15 0.94 1.02 0.62 0.67 0.65 0.83 0.76 0.92 1.10 0.96 1.02 1.00 0.98 0.99 0.96 0.93 0.87 0.87 0.94 1.25
0.86 0.82 2.10 1.41 1.54 1.77 0.86 1.32 0.88 2.03 0.68 0.79 0.49 0.86 0.75 0.76 0.70 1.13 0.81 0.79 0.43 0.13 0.25 0.08 0.14 0.02 0.06 0.06 0.02 0.00 0.03 0.02 0.03 0.04 0.08 0.23 0.28 0.35 0.37 0.28 0.24 0.25 0.44 0.23 0.21 0.26 0.28 0.27 0.20 0.36 0.29 0.22 0.34 0.39 0.36 0.44 0.54 0.68 0.58 0.62 0.46 0.50 0.65 0.61 0.85 0.75 0.80 1.09 0.80 0.69 0.76 0.53 0.70 0.52 0.46 0.75 0.95 0.79 0.82 1.03 0.77 0.67 0.88 1.01 1.30 1.12 1.27 1.08 0.80 1.14 1.16 1.34 0.98 0.79 1.07 1.10 1.25
0.49 1.24 0.94 1.85 1.90 1.26 0.78 0.75 0.90 0.54 0.94 0.50 0.78 1.04 0.72 0.36 0.31 0.75 0.58 0.70 0.62 0.53 0.45 0.08 0.05 0.07 0.02 0.01 0.01 0.00 0.02 0.03 0.03 0.05 0.11 0.20 0.16 0.26 0.27 0.26 0.21 0.27 0.24 0.35 0.31 0.33 0.27 0.32 0.27 0.27 0.29 0.28 0.26 0.29 0.37 0.50 0.61 0.52 0.44 0.44 0.39 0.44 0.57 0.95 0.74 0.55 1.25 0.68 0.86 0.83 0.85 0.77 0.74 0.75 0.80 1.14 0.91 0.75 1.12 0.89 0.92 0.93 0.87 0.93 1.32 1.34 1.20 0.76 0.83 0.92 1.18 1.15 1.06 0.95 0.97 1.22 1.29
0.77 1.04 1.38 1.92 1.10 1.05 0.55 0.52 0.18 0.80 0.78 0.40 0.67 1.04 0.95 0.37 0.51 0.54 1.35 0.62 0.65 0.58 0.15 0.13 0.07 0.03 0.01 0.01 0.00 0.01 0.02 0.05 0.04 0.02 0.05 0.05 0.07 0.05 0.12 0.14 0.14 0.17 0.29 0.25 0.35 0.29 0.26 0.23 0.20 0.20 0.19 0.30 0.31 0.34 0.52 0.57 0.40 0.43 0.62 0.36 0.36 0.54 0.84 1.01 0.59 0.76 0.70 0.77 0.99 0.70 0.85 0.75 0.72 0.82 0.90 0.81 0.85 0.90 0.70 0.85 0.92 0.88 0.82 0.96 1.20 1.12 1.11 1.17 0.91 1.08 1.38 1.64 1.23 0.95 0.74 0.88 0.82
0.43 0.85 1.19 1.52 0.20 0.75 0.07 0.23 0.57 0.51 0.31 0.57 0.59 0.47 0.80 0.39 0.42 0.11 0.97 0.54 0.53 0.52 0.09 0.08 0.05 0.06 0.03 0.02 0.01 0.02 0.03 0.03 0.02 0.03 0.02 0.04 0.03 0.04 0.04 0.08 0.08 0.06 0.11 0.15 0.17 0.27 0.19 0.20 0.17 0.20 0.17 0.33 0.32 0.30 0.58 0.56 0.31 0.42 0.33 0.27 0.40 0.33 0.40 0.77 0.92 0.81 0.72 0.70 0.66 0.85 0.61 0.64 0.67 0.85 0.68 0.59 0.76 0.63 0.86 0.97 0.81 0.85 0.74 0.70 0.71 1.02 0.83 1.02 0.96 0.83 0.86 1.04 0.94 1.10 0.85 0.77 0.46
0.42 0.58 0.97 1.00 0.53 0.27 0.31 0.49 0.57 0.29 0.54 0.29 0.65 0.25 0.39 0.29 0.37 0.51 0.40 0.31 0.39 0.50 0.05 0.02 0.01 0.01 0.02 0.01 0.01 0.02 0.03 0.03 0.04 0.02 0.02 0.03 0.07 0.04 0.02 0.03 0.06 0.06 0.07 0.12 0.18 0.22 0.17 0.19 0.18 0.20 0.24 0.33 0.25 0.25 0.24 0.48 0.22 0.26 0.29 0.37 0.42 0.38 0.52 0.44 0.58 0.66 0.67 0.74 0.59 0.72 0.79 0.53 0.53 0.38 0.56 0.71 0.51 0.71 1.13 0.71 1.04 1.13 0.92 1.10 0.68 0.75 0.96 0.84 1.00 0.95 0.93 0.77 0.74 0.54 0.65 0.63 0.48
0.04 0.49 0.25 0.18 0.44 0.68 0.47 0.39 0.33 0.13 0.52 0.62 0.62 0.18 0.70 0.28 0.93 0.74 0.36 0.72 0.83 0.33 0.10 0.00 0.01 0.00 0.01 0.00 0.01 0.00 0.01 0.01 0.01 0.01 0.01 0.01 0.01 0.03 0.04 0.03 0.03 0.05 0.06 0.09 0.11 0.24 0.15 0.16 0.16 0.29 0.21 0.27 0.22 0.21 0.29 0.18 0.22 0.18 0.24 0.41 0.27 0.52 0.91 0.76 0.57 0.25 0.45 0.73 1.39 0.63 0.45 0.32 0.43 0.46 0.50 0.45 0.31 0.45 0.56 0.70 0.87 0.84 0.56 0.51 1.05 0.84 0.77 0.99 0.71 0.60 0.52 0.39 0.40 0.41 0.60 0.50 0.33
0.26 0.08 0.11 0.04 0.14 0.71 0.26 0.27 0.21 0.58 0.82 0.54 0.21 0.25 0.31 0.49 0.40 0.34 0.72 1.14 0.49 0.25 0.16 0.01 0.01 0.00 0.01 0.00 0.00 0.02 0.01 0.01 0.01 0.01 0.01 0.03 0.02 0.01 0.01 0.02 0.01 0.03 0.03 0.04 0.10 0.15 0.15 0.16 0.16 0.17 0.28 0.20 0.22 0.20 0.18 0.16 0.18 0.21 0.32 0.29 0.34 0.45 0.51 0.53 0.23 0.41 0.57 0.50 0.85 0.50 0.49 0.41 0.63 0.55 0.37 0.29 0.48 0.84 0.69 1.05 1.00 0.98 0.86 0.71 0.57 0.72 0.56 0.84 0.57 0.36 0.39 0.46 0.55 0.39 0.35 0.39 0.31
0.03 0.24 0.09 0.19 0.23 0.36 0.17 0.25 0.17 0.65 0.84 0.69 0.93 0.09 0.67 0.47 0.36 0.68 0.72 0.46 0.27 0.33 0.02 0.00 0.00 0.00 0.00 0.00 0.00 0.01 0.00 0.00 0.00 0.00 0.01 0.01 0.00 0.00 0.00 0.01 0.01 0.01 0.02 0.03 0.06 0.08 0.12 0.12 0.14 0.18 0.21 0.24 0.18 0.15 0.13 0.12 0.15 0.28 0.14 0.29 0.22 0.52 0.55 0.38 0.33 0.36 0.62 0.51 0.45 0.45 0.30 0.54 0.74 0.50 0.31 0.70 0.68 0.72 0.80 1.36 0.74 0.54 0.47 0.53 0.72 1.11 0.73 0.46 0.43 0.56 0.43 0.41 0.53 0.61 0.24 0.31 0.33
0.02 0.07 0.07 0.13 0.27 0.27 0.20 0.27 0.43 0.17 0.66 0.81 0.92 0.51 0.66 0.41 0.70 0.41 0.85 0.43 0.07 0.07 0.01 0.00 0.00 0.00 0.00 0.00 0.00 0.00 0.01 0.01 0.01 0.01 0.02 0.01 0.01 0.01 0.01 0.00 0.00 0.03 0.01 0.03 0.04 0.06 0.10 0.11 0.13 0.18 0.15 0.12 0.15 0.14 0.17 0.29 0.21 0.22 0.30 0.36 0.16 0.58 0.33 0.40 0.48 0.52 0.67 0.45 0.29 0.50 0.39 0.40 0.46 0.69 0.45 0.62 0.92 0.88 1.19 1.00 0.65 0.67 0.40 0.45 0.37 0.57 0.48 0.35 0.23 0.38 0.38 0.66 0.60 0.59 0.75 0.50 0.24
0.01 0.05 0.08 0.07 0.09 0.15 0.39 0.31 0.24 0.29 0.57 0.75 0.82 0.71 0.44 0.68 0.27 0.92 0.53 0.33 0.05 0.04 0.00 0.00 0.00 0.00 0.00 0.01 0.00 0.00 0.00 0.00 0.00 0.01 0.01 0.01 0.01 0.01 0.01 0.01 0.01 0.03 0.01 0.02 0.03 0.03 0.05 0.08 0.07 0.13 0.10 0.13 0.14 0.21 0.20 0.23 0.36 0.37 0.29 0.22 0.26 0.35 0.36 0.39 0.54 0.51 0.60 0.50 0.36 0.33 0.43 0.53 0.50 0.41 0.46 0.69 0.84 0.71 0.57 0.29 0.40 0.45 0.64 0.44 0.43 0.30 0.32 0.34 0.32 0.21 0.22 0.36 0.49 0.81 0.70 0.36 0.45
0.00 0.03 0.06 0.13 0.08 0.21 0.44 0.81 0.10 0.81 1.20 1.35 1.60 0.80 1.04 0.67 0.45 0.82 0.20 0.32 0.14 0.02 0.00 0.00 0.00 0.00 0.00 0.01 0.00 0.00 0.00 0.00 0.00 0.00 0.01 0.01 0.01 0.02 0.00 0.03 0.00 0.00 0.01 0.03 0.03 0.04 0.02 0.04 0.08 0.06 0.12 0.10 0.36 0.19 0.13 0.13 0.15 0.13 0.28 0.26 0.40 0.52 0.45 0.66 0.82 0.70 0.85 0.42 0.31 0.48 0.48 0.60 0.39 0.65 0.47 0.32 0.39 0.47 0.40 0.44 0.40 0.71 0.68 0.49 0.54 0.58 0.24 0.27 0.15 0.23 0.23 0.46 0.42 0.38 0.30 0.22 0.16
0.01 0.02 0.03 0.06 0.09 0.18 0.49 0.84 0.47 0.33 0.78 0.80 1.68 0.98 0.80 0.54 0.49 0.49 0.18 0.10 0.03 0.03 0.00 0.00 0.00 0.00 0.00 0.00 0.00 0.00 0.00 0.00 0.00 0.00 0.00 0.01 0.01 0.01 0.00 0.00 0.01 0.01 0.00 0.01 0.01 0.01 0.03 0.02 0.03 0.04 0.08 0.10 0.09 0.10 0.08 0.09 0.24 0.09 0.13 0.17 0.29 0.39 0.80 0.45 0.42 0.31 0.21 0.32 0.24 0.11 0.17 0.49 0.62 0.46 0.58 0.36 0.51 0.65 0.58 0.61 0.47 0.38 0.39 0.55 0.67 0.35 0.29 0.26 0.21 0.22 0.18 0.33 0.33 0.37 0.14 0.17 0.24
0.02 0.02 0.06 0.05 0.05 0.21 0.59 0.97 0.82 0.54 0.66 0.73 1.08 1.30 0.73 0.48 0.96 0.36 0.10 0.07 0.16 0.03 0.00 0.00 0.00 0.00 0.00 0.00 0.00 0.01 0.00 0.00 0.01 0.00 0.00 0.00 0.00 0.00 0.00 0.00 0.00 0.00 0.00 0.01 0.00 0.01 0.02 0.02 0.04 0.03 0.05 0.07 0.08 0.07 0.04 0.09 0.09 0.07 0.12 0.19 0.26 0.35 0.53 0.28 0.20 0.17 0.09 0.19 0.18 0.12 0.27 0.33 0.41 0.59 0.26 0.34 0.27 0.38 0.40 0.60 0.46 0.73 0.58 0.43 0.45 0.51 0.40 0.27 0.31 0.33 0.20 0.30 0.28 0.24 0.16 0.11 0.07
0.01 0.01 0.02 0.02 0.16 0.27 0.64 1.15 1.08 1.01 0.98 0.84 1.27 1.45 0.96 0.81 0.60 0.25 0.11 0.16 0.07 0.02 0.01 0.00 0.01 0.00 0.00 0.00 0.00 0.01 0.01 0.01 0.00 0.00 0.00 0.00 0.00 0.00 0.00 0.00 0.00 0.00 0.00 0.01 0.00 0.01 0.01 0.02 0.02 0.02 0.03 0.05 0.06 0.05 0.04 0.05 0.05 0.10 0.08 0.13 0.20 0.17 0.29 0.07 0.09 0.05 0.10 0.09 0.11 0.22 0.38 0.31 0.29 0.25 0.33 0.46 0.35 0.53 0.56 0.52 0.60 0.63 0.38 0.44 0.48 0.78 0.70 0.40 0.27 0.44 0.24 0.41 0.43 0.26 0.12 0.12 0.12
0.01 0.01 0.09 0.03 0.24 0.45 0.49 0.48 1.06 0.73 0.54 0.80 0.70 1.50 1.39 0.91 1.18 0.38 0.28 0.12 0.11 0.04 0.04 0.01 0.01 0.01 0.00 0.00 0.00 0.00 0.00 0.00 0.00 0.00 0.00 0.00 0.00 0.00 0.00 0.01 0.01 0.01 0.01 0.00 0.01 0.01 0.01 0.00 0.01 0.02 0.03 0.07 0.06 0.06 0.04 0.04 0.04 0.10 0.05 0.20 0.24 0.11 0.08 0.09 0.05 0.03 0.08 0.03 0.06 0.27 0.29 0.29 0.46 0.50 0.58 0.62 0.49 0.26 0.39 0.32 0.72 0.53 0.73 0.61 0.60 0.49 0.45 0.41 0.28 0.42 0.35 0.30 0.25 0.18 0.23 0.13 0.19
0.01 0.01 0.24 0.17 0.21 0.62 0.60 0.81 0.65 1.03 0.28 0.54 1.29 1.33 1.00 0.87 0.76 0.63 0.54 0.17 0.26 0.11 0.03 0.04 0.01 0.01 0.00 0.00 0.01 0.01 0.00 0.00 0.00 0.00 0.00 0.00 0.00 0.01 0.01 0.01 0.00 0.01 0.00 0.01 0.01 0.02 0.02 0.03 0.03 0.04 0.03 0.03 0.05 0.04 0.05 0.04 0.06 0.05 0.06 0.09 0.11 0.08 0.16 0.11 0.11 0.27 0.24 0.18 0.15 0.11 0.13 0.27 0.46 1.06 0.59 0.64 0.51 0.36 0.47 0.87 0.58 0.51 0.52 0.88 0.78 0.64 0.59 0.41 0.48 0.39 0.26 0.34 0.16 0.10 0.09 0.12 0.09
0.00 0.08 0.22 0.19 0.02 0.33 0.18 0.65 0.76 0.25 0.33 0.70 1.18 1.44 0.88 0.82 0.51 0.27 0.23 0.13 0.10 0.12 0.02 0.03 0.08 0.01 0.00 0.00 0.00 0.01 0.02 0.01 0.01 0.00 0.00 0.00 0.03 0.11 0.01 0.01 0.01 0.01 0.01 0.01 0.01 0.02 0.02 0.01 0.02 0.01 0.01 0.02 0.04 0.05 0.05 0.04 0.05 0.05 0.07 0.06 0.05 0.09 0.19 0.07 0.14 0.10 0.07 0.12 0.25 0.12 0.28 0.26 0.24 0.64 0.64 0.35 0.51 0.28 0.59 0.40 0.39 0.53 0.63 0.67 0.95 0.64 0.56 0.48 0.59 0.48 0.39 0.32 0.27 0.14 0.10 0.08 0.05
0.02 0.00 0.28 0.02 0.29 0.17 0.25 0.14 0.31 0.36 0.49 0.30 0.70 1.12 0.73 0.48 0.32 0.64 0.50 0.41 0.25 0.38 0.15 0.10 0.11 0.09 0.03 0.02 0.01 0.01 0.00 0.01 0.01 0.00 0.00 0.01 0.05 0.13 0.11 0.03 0.02 0.01 0.00 0.01 0.01 0.01 0.02 0.02 0.01 0.02 0.02 0.02 0.02 0.04 0.03 0.03 0.05 0.04 0.06 0.08 0.05 0.12 0.74 0.25 0.11 0.08 0.09 0.11 0.15 0.14 0.16 0.36 0.52 0.92 0.52 0.60 0.32 0.33 0.47 0.34 0.41 0.40 0.45 0.79 0.53 0.70 0.72 0.60 0.56 0.44 0.37 0.39 0.30 0.27 0.16 0.11 0.07
0.03 0.01 0.03 0.04 0.13 0.03 0.43 0.15 0.27 0.12 0.32 0.36 0.36 0.49 0.26 0.50 0.28 0.35 0.58 0.51 0.78 0.65 0.56 0.69 0.15 0.13 0.03 0.02 0.05 0.03 0.01 0.01 0.01 0.00 0.00 0.02 0.02 0.03 0.07 0.07 0.01 0.01 0.01 0.00 0.00 0.01 0.01 0.03 0.01 0.02 0.01 0.02 0.02 0.02 0.03 0.04 0.04 0.05 0.05 0.05 0.08 0.11 0.79 0.54 0.09 0.08 0.05 0.35 0.31 0.26 0.31 0.30 0.45 0.67 0.76 0.84 0.40 0.36 0.50 0.42 0.35 0.23 0.45 0.44 0.69 0.49 0.56 0.65 0.46 0.25 0.21 0.30 0.28 0.20 0.25 0.23 0.34
0.01 0.12 0.07 0.04 0.21 0.02 0.16 0.17 0.04 0.05 0.27 0.28 0.16 0.37 0.29 0.45 0.28 0.69 0.55 0.25 0.67 0.31 0.53 0.52 0.53 0.33 0.07 0.03 0.02 0.01 0.01 0.03 0.05 0.03 0.02 0.03 0.01 0.02 0.02 0.01 0.01 0.03 0.00 0.01 0.03 0.01 0.01 0.02 0.01 0.02 0.01 0.02 0.04 0.04 0.05 0.09 0.08 0.09 0.22 0.22 0.14 0.09 0.34 0.11 0.14 0.29 0.20 0.11 0.23 0.20 0.30 0.21 0.20 0.45 0.40 0.48 0.47 0.32 0.22 0.33 0.27 0.27 0.47 0.50 0.49 0.53 0.38 0.41 0.46 0.62 0.27 0.13 0.23 0.35 0.22 0.21 0.18
0.00 0.01 0.03 0.07 0.03 0.14 0.12 0.13 0.07 0.06 0.16 0.23 0.33 0.40 0.47 0.19 0.24 0.72 1.08 0.90 0.47 0.50 0.67 0.36 0.48 0.28 0.13 0.07 0.05 0.02 0.05 0.03 0.01 0.01 0.02 0.00 0.00 0.01 0.02 0.00 0.05 0.00 0.01 0.01 0.01 0.01 0.01 0.03 0.02 0.02 0.02 0.02 0.03 0.08 0.07 0.09 0.17 0.35 0.36 0.36 0.60 1.06 0.82 0.37 0.10 0.15 0.09 0.23 0.56 0.47 0.22 0.21 0.21 0.19 0.21 0.38 0.38 0.34 0.29 0.34 0.25 0.41 0.60 0.41 0.55 0.47 0.47 0.51 0.60 0.61 0.20 0.40 0.25 0.39 0.32 0.16 0.14
0.00 0.01 0.03 0.02 0.01 0.07 0.07 0.15 0.04 0.09 0.16 0.10 0.21 0.45 0.23 0.41 0.89 0.99 0.99 0.98 0.41 0.37 0.33 0.67 0.60 0.69 0.44 0.38 0.04 0.02 0.05 0.04 0.01 0.01 0.01 0.02 0.01 0.01 0.00 0.00 0.00 0.01 0.00 0.00 0.01 0.01 0.03 0.04 0.05 0.03 0.03 0.03 0.02 0.07 0.11 0.11 0.19 0.20 0.20 0.31 1.34 0.86 0.68 0.98 0.17 0.14 0.27 0.18 0.25 0.35 0.12 0.08 0.15 0.20 0.16 0.10 0.17 0.14 0.17 0.20 0.18 0.27 0.31 0.36 0.46 0.48 0.71 0.36 0.33 0.40 0.25 0.28 0.27 0.41 0.21 0.18 0.09
0.00 0.01 0.01 0.02 0.01 0.06 0.01 0.04 0.08 0.04 0.07 0.45 0.33 0.38 0.52 0.72 1.25 1.01 0.95 0.99 0.65 0.68 0.41 0.52 0.65 0.80 0.84 0.22 0.19 0.04 0.03 0.02 0.01 0.02 0.02 0.01 0.00 0.00 0.00 0.00 0.00 0.00 0.01 0.00 0.01 0.02 0.03 0.06 0.03 0.03 0.04 0.12 0.08 0.06 0.14 0.16 0.19 0.18 0.12 0.20 0.16 0.28 0.34 0.36 0.18 0.10 0.45 0.17 0.11 0.06 0.24 0.05 0.08 0.10 0.12 0.12 0.14 0.12 0.13 0.14 0.15 0.18 0.24 0.53 0.96 0.60 0.35 0.39 0.24 0.21 0.15 0.26 0.27 0.25 0.13 0.22 0.25
0.00 0.00 0.00 0.02 0.05 0.01 0.06 0.03 0.07 0.18 0.11 0.53 0.57 0.60 0.49 0.72 0.89 1.01 1.04 1.42 1.64 1.38 0.73 0.62 0.99 0.65 0.46 0.37 0.26 0.12 0.03 0.03 0.01 0.01 0.01 0.01 0.01 0.01 0.00 0.00 0.00 0.00 0.01 0.02 0.06 0.03 0.07 0.04 0.04 0.03 0.02 0.03 0.15 0.13 0.10 0.06 0.10 0.07 0.04 0.03 0.05 0.04 0.04 0.03 0.07 0.03 0.04 0.04 0.08 0.05 0.05 0.05 0.07 0.09 0.11 0.09 0.18 0.20 0.27 0.14 0.19 0.25 0.41 0.65 0.96 0.33 0.35 0.33 0.35 0.34 0.43 0.39 0.17 0.22 0.14 0.12 0.15
0.00 0.00 0.00 0.00 0.00 0.01 0.01 0.15 0.02 0.02 0.03 0.42 0.47 0.56 1.08 1.52 1.09 0.93 0.84 0.82 0.99 0.42 0.43 0.75 0.35 0.44 0.73 0.47 0.54 0.14 0.08 0.01 0.01 0.01 0.02 0.01 0.00 0.00 0.00 0.00 0.00 0.00 0.02 0.03 0.09 0.07 0.03 0.01 0.01 0.02 0.02 0.02 0.01 0.01 0.02 0.03 0.05 0.03 0.03 0.04 0.05 0.04 0.04 0.06 0.06 0.07 0.04 0.02 0.03 0.07 0.11 0.03 0.19 0.21 0.07 0.06 0.13 0.14 0.09 0.16 0.16 0.28 0.38 0.75 0.61 0.54 0.44 0.30 0.34 0.27 0.29 0.33 0.44 0.12 0.13 0.14 0.35
0.00 0.00 0.00 0.00 0.00 0.00 0.00 0.01 0.01 0.01 0.40 1.13 0.06 0.29 0.41 0.65 0.49 0.60 0.66 0.42 0.42 0.34 0.20 0.21 0.28 0.77 0.36 0.45 0.40 0.19 0.06 0.06 0.08 0.02 0.00 0.00 0.01 0.00 0.00 0.00 0.00 0.00 0.00 0.00 0.00 0.00 0.00 0.00 0.00 0.00 0.00 0.00 0.00 0.01 0.01 0.01 0.01 0.02 0.03 0.04 0.06 0.02 0.04 0.02 0.02 0.03 0.06 0.06 0.05 0.03 0.05 0.69 0.46 0.29 0.40 0.15 0.12 0.08 0.17 0.38 0.70 0.46 0.40 0.16 0.18 0.41 0.41 0.54 0.25 0.23 0.24 0.19 0.19 0.37 0.30 0.58 0.92
0.00 0.00 0.00 0.00 0.00 0.00 0.01 0.02 0.06 0.16 0.16 0.08 0.10 0.21 0.42 0.27 0.37 0.29 0.21 0.19 0.21 0.27 0.18 0.20 0.16 0.22 0.19 0.36 1.03 0.14 0.24 0.12 0.05 0.02 0.03 0.02 0.00 0.00 0.00 0.00 0.00 0.00 0.00 0.00 0.00 0.00 0.00 0.00 0.00 0.00 0.00 0.00 0.00 0.01 0.01 0.01 0.01 0.01 0.01 0.02 0.02 0.02 0.02 0.05 0.00 0.03 0.02 0.05 0.21 0.14 0.15 0.31 0.59 0.41 0.35 0.03 0.05 0.05 0.13 0.25 0.19 0.15 0.14 0.34 0.50 0.57 0.41 0.31 0.25 0.32 0.37 0.85 0.73 0.38 0.96 1.34 0.55
0.00 0.00 0.00 0.00 0.00 0.00 0.00 0.02 0.16 0.06 0.01 0.29 0.03 0.13 0.34 0.24 0.07 0.23 0.26 0.46 0.30 0.72 0.27 0.16 0.18 0.06 0.15 0.21 0.36 0.17 0.06 0.06 0.03 0.02 0.04 0.01 0.00 0.00 0.00 0.00 0.00 0.00 0.00 0.00 0.00 0.00 0.00 0.00 0.00 0.00 0.00 0.00 0.00 0.01 0.01 0.01 0.01 0.01 0.01 0.00 0.00 0.01 0.01 0.01 0.03 0.02 0.02 0.05 0.08 0.02 0.06 0.21 0.28 0.07 0.02 0.02 0.03 0.04 0.06 0.12 0.21 0.24 0.43 0.16 0.42 0.26 0.22 0.17 0.24 0.79 0.74 1.40 0.47 0.97 1.79 1.85 0.15
0.01 0.00 0.00 0.02 0.03 0.00 0.00 0.00 0.02 0.27 0.14 0.11 0.02 0.01 0.05 0.07 0.05 0.05 0.15 0.28 0.19 0.26 0.15 0.26 0.10 0.08 0.04 0.34 0.11 0.12 0.08 0.07 0.06 0.09 0.04 0.00 0.00 0.01 0.01 0.00 0.00 0.00 0.00 0.00 0.00 0.00 0.00 0.00 0.00 0.00 0.00 0.00 0.00 0.01 0.01 0.01 0.01 0.01 0.05 0.04 0.04 0.01 0.01 0.05 0.01 0.03 0.02 0.05 0.03 0.02 0.01 0.01 0.01 0.04 0.08 0.09 0.02 0.03 0.04 0.08 0.10 0.12 0.13 0.15 0.41 0.29 0.15 0.16 0.74 0.87 0.72 0.40 1.00 1.87 0.57 0.18 0.15
0.00 0.00 0.00 0.00 0.02 0.01 0.00 0.01 0.01 0.13 0.02 0.05 0.01 0.01 0.07 0.23 0.15 0.04 0.11 0.10 0.23 0.12 0.09 0.07 0.07 0.06 0.08 0.22 0.09 0.11 0.09 0.06 0.07 0.06 0.04 0.05 0.01 0.02 0.02 0.01 0.01 0.00 0.00 0.00 0.00 0.00 0.00 0.00 0.00 0.00 0.00 0.00 0.00 0.01 0.01 0.01 0.01 0.01 0.01 0.00 0.01 0.02 0.05 0.03 0.04 0.07 0.08 0.02 0.03 0.01 0.01 0.01 0.02 0.07 0.08 0.08 0.06 0.04 0.06 0.07 0.07 0.07 0.17 0.39 0.35 0.25 0.18 0.45 1.18 0.37 0.20 0.27 0.60 0.85 0.63 0.64 0.21
0.00 0.00 0.00 0.00 0.00 0.06 0.01 0.04 0.09 0.10 0.04 0.02 0.00 0.05 0.01 0.28 0.42 0.41 0.26 0.20 0.09 0.18 0.04 0.16 0.09 0.05 0.07 0.06 0.06 0.04 0.10 0.12 0.14 0.19 0.04 0.06 0.05 0.01 0.03 0.00 0.00 0.01 0.00 0.00 0.00 0.00 0.00 0.00 0.00 0.00 0.00 0.00 0.00 0.00 0.00 0.01 0.00 0.00 0.00 0.00 0.00 0.00 0.01 0.02 0.04 0.03 0.06 0.03 0.02 0.03 0.05 0.01 0.01 0.05 0.04 0.03 0.06 0.03 0.03 0.02 0.07 0.20 0.36 0.26 0.36 0.38 0.28 0.22 0.15 0.23 0.23 0.49 0.76 0.40 0.48 0.31 0.27
0.00 0.00 0.00 0.00 0.00 0.03 0.17 0.06 0.09 0.25 0.14 0.01 0.00 0.01 0.01 0.07 0.23 0.13 0.03 0.01 0.03 0.18 0.05 0.06 0.05 0.02 0.04 0.06 0.08 0.07 0.63 0.22 0.06 0.40 0.29 0.07 0.11 0.13 0.04 0.01 0.01 0.00 0.00 0.00 0.00 0.00 0.00 0.00 0.00 0.00 0.00 0.00 0.00 0.00 0.01 0.01 0.00 0.00 0.00 0.00 0.00 0.00 0.00 0.00 0.01 0.05 0.01 0.01 0.02 0.01 0.02 0.03 0.02 0.02 0.02 0.02 0.04 0.08 0.05 0.04 0.07 0.23 0.08 0.09 0.10 0.22 0.31 0.29 0.22 0.22 0.18 0.21 0.68 0.18 0.83 0.50 0.34
0.00 0.00 0.00 0.02 0.03 0.01 0.28 0.17 0.13 0.03 0.02 0.01 0.00 0.01 0.07 0.05 0.04 0.01 0.08 0.14 0.02 0.02 0.02 0.01 0.03 0.01 0.01 0.05 0.05 0.04 0.06 0.09 0.10 0.22 0.33 0.20 0.11 0.10 0.14 0.06 0.01 0.00 0.00 0.00 0.00 0.00 0.00 0.00 0.00 0.00 0.00 0.00 0.00 0.00 0.00 0.01 0.01 0.01 0.01 0.00 0.00 0.00 0.00 0.00 0.00 0.01 0.02 0.01 0.01 0.01 0.01 0.01 0.02 0.03 0.06 0.03 0.01 0.02 0.10 0.05 0.03 0.08 0.05 0.07 0.05 0.06 0.06 0.05 0.25 0.17 0.17 0.12 0.21 0.22 0.48 0.27 0.21
0.00 0.00 0.00 0.02 0.02 0.02 0.02 0.03 0.03 0.01 0.00 0.03 0.01 0.05 0.07 0.06 0.01 0.02 0.00 0.01 0.09 0.01 0.01 0.02 0.02 0.01 0.01 0.04 0.05 0.05 0.13 0.54 0.47 0.19 0.13 0.41 0.45 0.25 0.18 0.16 0.12 0.01 0.00 0.00 0.00 0.00 0.00 0.00 0.00 0.00 0.00 0.00 0.00 0.00 0.00 0.00 0.01 0.01 0.01 0.01 0.00 0.00 0.00 0.00 0.00 0.00 0.00 0.00 0.00 0.01 0.02 0.01 0.01 0.01 0.01 0.03 0.00 0.01 0.02 0.04 0.03 0.04 0.05 0.04 0.05 0.07 0.05 0.07 0.12 0.13 0.13 0.22 0.19 0.36 0.47 0.40 0.47
0.00 0.00 0.00 0.01 0.02 0.00 0.01 0.02 0.04 0.00 0.01 0.00 0.02 0.05 0.14 0.06 0.03 0.00 0.02 0.00 0.01 0.03 0.00 0.01 0.01 0.00 0.02 0.19 0.08 0.10 0.08 0.16 0.39 0.41 0.20 0.33 0.63 0.20 0.51 0.13 0.02 0.10 0.03 0.00 0.00 0.00 0.00 0.00 0.00 0.00 0.00 0.00 0.00 0.00 0.00 0.00 0.00 0.01 0.01 0.01 0.00 0.00 0.00 0.01 0.01 0.00 0.00 0.00 0.01 0.01 0.00 0.01 0.01 0.00 0.01 0.02 0.02 0.01 0.02 0.01 0.04 0.03 0.04 0.05 0.04 0.10 0.15 0.09 0.16 0.11 0.11 0.15 0.14 0.31 0.47 0.37 0.29
0.00 0.00 0.00 0.01 0.01 0.02 0.10 0.01 0.07 0.10 0.04 0.01 0.03 0.10 0.15 0.29 0.12 0.05 0.15 0.02 0.02 0.01 0.00 0.02 0.03 0.11 0.27 0.23 0.16 0.08 0.07 0.07 0.06 0.48 0.36 0.04 0.21 0.03 0.04 0.03 0.13 0.10 0.02 0.01 0.00 0.00 0.00 0.00 0.00 0.00 0.00 0.00 0.00 0.00 0.00 0.00 0.00 0.00 0.00 0.01 0.00 0.00 0.00 0.01 0.01 0.02 0.01 0.01 0.01 0.01 0.01 0.01 0.01 0.00 0.01 0.00 0.01 0.01 0.02 0.03 0.01 0.01 0.03 0.05 0.04 0.06 0.10 0.09 0.05 0.04 0.07 0.05 0.05 0.04 0.10 0.15 0.26
0.00 0.00 0.00 0.01 0.00 0.01 0.01 0.01 0.00 0.04 0.05 0.19 0.00 0.01 0.01 0.04 0.12 0.34 0.13 0.64 0.78 0.33 0.37 0.48 0.50 0.62 0.68 0.17 0.37 0.20 0.15 0.42 0.36 0.26 0.30 0.20 0.24 0.25 0.07 0.08 0.15 0.04 0.03 0.00 0.01 0.01 0.00 0.00 0.02 0.03 0.01 0.01 0.00 0.00 0.00 0.00 0.00 0.00 0.00 0.00 0.00 0.01 0.01 0.01 0.01 0.01 0.00 0.00 0.00 0.00 0.00 0.00 0.00 0.01 0.01 0.00 0.01 0.01 0.01 0.02 0.02 0.01 0.01 0.06 0.03 0.03 0.03 0.04 0.08 0.08 0.12 0.05 0.04 0.04 0.06 0.09 0.09
0.00 0.00 0.00 0.00 0.00 0.00 0.01 0.03 0.01 0.01 0.01 0.04 0.00 0.11 0.18 0.02 0.14 0.08 0.08 0.24 0.21 0.61 0.50 0.47 0.54 0.45 0.45 0.49 0.44 0.67 0.70 0.37 0.10 0.41 0.41 0.51 0.73 0.49 0.15 0.12 0.24 0.07 0.11 0.02 0.03 0.01 0.00 0.01 0.02 0.04 0.04 0.00 0.00 0.00 0.00 0.00 0.00 0.00 0.00 0.00 0.00 0.00 0.00 0.00 0.00 0.00 0.01 0.00 0.00 0.00 0.01 0.01 0.01 0.01 0.00 0.01 0.01 0.01 0.01 0.01 0.01 0.03 0.03 0.02 0.05 0.04 0.03 0.04 0.06 0.04 0.06 0.04 0.04 0.04 0.09 0.06 0.12
0.00 0.00 0.00 0.00 0.02 0.05 0.00 0.01 0.02 0.03 0.02 0.08 0.04 0.07 0.04 0.08 0.13 0.02 0.01 0.01 0.05 0.04 0.03 0.05 0.08 0.26 0.29 0.18 0.16 0.28 0.38 0.42 0.70 0.78 0.51 0.45 0.40 0.45 0.13 0.24 0.21 0.10 0.09 0.10 0.07 0.03 0.02 0.00 0.03 0.05 0.02 0.05 0.01 0.00 0.00 0.00 0.00 0.00 0.00 0.00 0.00 0.00 0.00 0.00 0.00 0.00 0.01 0.01 0.00 0.00 0.00 0.00 0.00 0.01 0.01 0.01 0.02 0.01 0.01 0.01 0.01 0.02 0.02 0.02 0.02 0.03 0.02 0.02 0.03 0.04 0.04 0.11 0.07 0.03 0.05 0.07 0.08
0.00 0.00 0.00 0.00 0.00 0.01 0.02 0.00 0.09 0.00 0.23 0.03 0.24 0.21 0.28 0.17 0.29 0.17 0.10 0.11 0.02 0.04 0.03 0.02 0.03 0.03 0.14 0.19 0.23 0.39 0.37 0.45 0.31 0.44 0.28 0.11 0.27 0.15 0.30 0.49 0.21 0.20 0.19 0.15 0.11 0.07 0.04 0.03 0.02 0.02 0.04 0.06 0.16 0.05 0.00 0.00 0.00 0.00 0.00 0.00 0.00 0.00 0.00 0.00 0.00 0.00 0.00 0.00 0.00 0.00 0.00 0.00 0.01 0.01 0.01 0.00 0.01 0.00 0.01 0.01 0.01 0.02 0.01 0.01 0.01 0.01 0.03 0.02 0.03 0.04 0.03 0.06 0.05 0.06 0.07 0.06 0.10
0.00 0.00 0.00 0.00 0.00 0.00 0.01 0.02 0.05 0.03 0.07 0.10 0.09 0.11 0.11 0.19 0.13 0.62 0.64 0.13 0.01 0.01 0.03 0.02 0.03 0.03 0.04 0.22 0.35 0.28 0.22 0.32 0.35 0.33 0.53 0.30 0.37 0.43 0.47 0.21 0.32 0.44 0.28 0.07 0.04 0.05 0.02 0.04 0.06 0.10 0.09 0.03 0.06 0.08 0.04 0.00 0.00 0.00 0.00 0.00 0.00 0.00 0.00 0.00 0.00 0.00 0.00 0.00 0.00 0.00 0.00 0.00 0.00 0.00 0.00 0.01 0.00 0.01 0.01 0.01 0.01 0.01 0.01 0.01 0.02 0.02 0.03 0.03 0.06 0.04 0.04 0.05 0.07 0.05 0.06 0.08 0.08
0.00 0.00 0.00 0.00 0.00 0.00 0.00 0.00 0.00 0.00 0.02 0.05 0.06 0.36 0.09 0.12 0.01 0.05 0.44 0.12 0.19 0.01 0.01 0.02 0.02 0.03 0.03 0.11 0.35 0.12 0.12 0.16 0.35 0.37 0.40 0.37 0.18 0.13 0.06 0.18 0.15 0.49 0.70 0.24 0.20 0.15 0.05 0.12 0.75 0.55 0.81 0.32 0.04 0.03 0.02 0.06 0.01 0.00 0.00 0.00 0.00 0.00 0.00 0.00 0.00 0.00 0.00 0.00 0.00 0.00 0.00 0.00 0.00 0.00 0.00 0.00 0.00 0.00 0.01 0.01 0.01 0.01 0.02 0.02 0.02 0.03 0.02 0.04 0.04 0.04 0.04 0.05 0.04 0.05 0.06 0.09 0.04